Location: D�nning
(49.2479°N, 12.8491°E)
Time: 05:37:06
(UTC+00:00)

Cosmos 2263 Rocket - Pass Details

Date: 18 September 2020
Orbit: 822 x 850 km, 71.0° (Epoch: 29 October)

Event Time Altitude Azimuth Distance (km) Brightness Sun altitude
Rises 17:47:58 0° 195° (SSW) 3,344 5.4 -6.3°
Reaches altitude 10° 17:50:24 10° 192° (SSW) 2,416 4.6 -6.7°
Maximum altitude 17:55:51 61° 113° (ESE) 933 2.2 -7.5°
Drops below altitude 10° 18:01:21 10° 34° (NE) 2,445 4.4 -8.4°
Sets 18:03:50 0° 31° (NNE) 3,387 5.1 -8.8°
